| time (UTC) | temp F | wind direction | speed knots | gust knots | rain 1hr in | rain 24hr in | rain mn in | humidity % | barometer mb |
| 20260506051004 | 55 | 192 | 0.0 | 0.0 | 0.00 | 0.03 | 0.00 | 93 | 1006.4 |
| 20260506050504 | 55 | 192 | 0.0 | 2.6 | 0.00 | 0.03 | 0.00 | 93 | 1006.5 |
| 20260506045004 | 55 | 197 | 0.9 | 4.3 | 0.00 | 0.03 | 0.00 | 92 | 1006.3 |
| 20260506044504 | 55 | 213 | 0.0 | 1.7 | 0.00 | 0.03 | 0.00 | 92 | 1006.2 |
| 20260506044004 | 56 | 213 | 0.0 | 2.6 | 0.00 | 0.03 | 0.00 | 92 | 1006.4 |
| 20260506043004 | 56 | 213 | 0.0 | 0.0 | 0.00 | 0.03 | 0.00 | 93 | 1006.3 |
| 20260506042504 | 56 | 213 | 0.0 | 0.0 | 0.00 | 0.03 | 0.00 | 93 | 1006.1 |
| 20260506042004 | 55 | 213 | 0.0 | 4.3 | 0.00 | 0.03 | 0.00 | 93 | 1006.2 |
| 20260506041504 | 55 | 213 | 0.9 | 7.0 | 0.00 | 0.03 | 0.00 | 94 | 1006.2 |
| 20260506041005 | 55 | 200 | 2.6 | 5.2 | 0.00 | 0.03 | 0.00 | 94 | 1006.1 |
| 20260506040505 | 55 | 184 | 2.6 | 6.1 | 0.00 | 0.03 | 0.00 | 94 | 1006.0 |
| 20260506040004 | 56 | 179 | 1.7 | 6.1 | 0.00 | 0.03 | 0.00 | 94 | 1005.9 |
| 20260506035504 | 56 | 198 | 0.9 | 5.2 | 0.00 | 0.03 | 0.03 | 94 | 1005.9 |
| 20260506035004 | 56 | 194 | 0.9 | 4.3 | 0.00 | 0.03 | 0.03 | 94 | 1005.7 |
| 20260506034003 | 57 | 183 | 1.7 | 5.2 | 0.00 | 0.03 | 0.03 | 94 | 1005.8 |
| 20260506033503 | 57 | 181 | 1.7 | 6.1 | 0.00 | 0.03 | 0.03 | 94 | 1005.7 |
| 20260506033003 | 57 | 190 | 0.0 | 2.6 | 0.00 | 0.03 | 0.03 | 94 | 1005.9 |
| 20260506032503 | 57 | 184 | 0.9 | 2.6 | 0.00 | 0.03 | 0.03 | 95 | 1006.0 |
| 20260506032003 | 57 | 169 | 0.9 | 4.3 | 0.00 | 0.03 | 0.03 | 95 | 1005.9 |
| 20260506031503 | 57 | 198 | 0.0 | 1.7 | 0.00 | 0.03 | 0.03 | 96 | 1006.1 |
| 20260506031003 | 57 | 198 | 0.9 | 4.3 | 0.00 | 0.03 | 0.03 | 96 | 1006.0 |
| 20260506030503 | 58 | 198 | 0.9 | 2.6 | 0.00 | 0.03 | 0.03 | 95 | 1006.0 |
| 20260506030003 | 58 | 198 | 0.9 | 2.6 | 0.00 | 0.03 | 0.03 | 95 | 1006.1 |
| 20260506025503 | 58 | 199 | 0.0 | 4.3 | 0.00 | 0.03 | 0.03 | 95 | 1006.2 |
| 20260506025002 | 58 | 199 | 1.7 | 6.1 | 0.00 | 0.03 | 0.03 | 95 | 1006.4 |
| 20260506024503 | 58 | 202 | 0.9 | 2.6 | 0.00 | 0.03 | 0.03 | 95 | 1006.3 |
| 20260506024002 | 58 | 202 | 0.0 | 1.7 | 0.00 | 0.03 | 0.03 | 95 | 1006.3 |
| 20260506023502 | 58 | 202 | 0.9 | 5.2 | 0.00 | 0.03 | 0.03 | 95 | 1006.3 |
| 20260506023003 | 58 | 225 | 0.9 | 2.6 | 0.00 | 0.03 | 0.03 | 96 | 1006.3 |
| 20260506022503 | 58 | 178 | 0.9 | 4.3 | 0.00 | 0.03 | 0.03 | 96 | 1006.2 |
| 20260506022003 | 58 | 172 | 2.6 | 7.0 | 0.00 | 0.03 | 0.03 | 96 | 1006.2 |
| 20260506021503 | 58 | 190 | 0.9 | 2.6 | 0.00 | 0.03 | 0.03 | 96 | 1006.3 |
| 20260506021003 | 58 | 216 | 2.6 | 7.8 | 0.00 | 0.03 | 0.03 | 96 | 1006.4 |
| 20260506020503 | 58 | 181 | 2.6 | 8.7 | 0.00 | 0.03 | 0.03 | 96 | 1006.4 |
| 20260506020003 | 58 | 193 | 3.5 | 7.0 | 0.00 | 0.03 | 0.03 | 97 | 1006.6 |
| 20260506015503 | 58 | 199 | 3.5 | 7.8 | 0.00 | 0.03 | 0.03 | 97 | 1006.4 |
| 20260506015003 | 58 | 201 | 2.6 | 7.8 | 0.00 | 0.03 | 0.03 | 97 | 1006.3 |
| 20260506014003 | 58 | 223 | 0.0 | 0.0 | 0.00 | 0.03 | 0.03 | 97 | 1006.3 |
| 20260506013503 | 58 | 223 | 0.0 | 0.0 | 0.00 | 0.03 | 0.03 | 97 | 1006.0 |
| 20260506013003 | 58 | 223 | 0.0 | 0.0 | 0.00 | 0.03 | 0.03 | 96 | 1005.8 |
| 20260506012503 | 58 | 223 | 0.0 | 0.0 | 0.00 | 0.03 | 0.03 | 96 | 1005.7 |
| 20260506012003 | 58 | 223 | 0.0 | 0.0 | 0.00 | 0.03 | 0.03 | 96 | 1005.6 |
| 20260506011503 | 58 | 223 | 0.0 | 0.0 | 0.00 | 0.03 | 0.03 | 96 | 1005.6 |
| 20260506011003 | 58 | 223 | 0.0 | 0.0 | 0.00 | 0.03 | 0.03 | 96 | 1005.5 |
| 20260506010503 | 58 | 223 | 0.0 | 0.0 | 0.00 | 0.03 | 0.03 | 96 | 1005.5 |
| 20260506010002 | 58 | 223 | 0.0 | 0.0 | 0.00 | 0.03 | 0.03 | 96 | 1005.5 |
| 20260506005503 | 58 | 223 | 0.0 | 0.0 | 0.00 | 0.03 | 0.03 | 96 | 1005.5 |
| 20260506005003 | 58 | 223 | 0.0 | 0.0 | 0.00 | 0.03 | 0.03 | 96 | 1005.4 |
| 20260506004503 | 58 | 223 | 0.0 | 0.0 | 0.00 | 0.03 | 0.03 | 95 | 1005.3 |
| 20260506004003 | 58 | 223 | 0.0 | 0.0 | 0.00 | 0.03 | 0.03 | 95 | 1005.4 |
| 20260506003503 | 58 | 223 | 0.0 | 0.0 | 0.01 | 0.03 | 0.03 | 95 | 1005.3 |
| 20260506003002 | 59 | 223 | 0.0 | 0.0 | 0.01 | 0.03 | 0.03 | 95 | 1005.1 |
| 20260506002502 | 59 | 223 | 0.0 | 0.0 | 0.01 | 0.03 | 0.03 | 94 | 1004.9 |
| 20260506002003 | 59 | 223 | 0.0 | 0.0 | 0.02 | 0.03 | 0.03 | 94 | 1005.0 |
| 20260506001003 | 59 | 223 | 0.0 | 0.0 | 0.02 | 0.03 | 0.03 | 94 | 1004.9 |
| 20260506000003 | 59 | 223 | 0.0 | 0.0 | 0.02 | 0.03 | 0.03 | 94 | 1004.9 |
| 20260505235003 | 60 | 223 | 0.0 | 0.0 | 0.02 | 0.03 | 0.03 | 93 | 1004.8 |
| 20260505234503 | 60 | 223 | 0.0 | 0.0 | 0.02 | 0.03 | 0.03 | 92 | 1004.7 |
| 20260505234003 | 60 | 223 | 0.0 | 7.0 | 0.02 | 0.03 | 0.03 | 91 | 1004.8 |
| 20260505233502 | 61 | 242 | 4.3 | 10.4 | 0.01 | 0.02 | 0.02 | 90 | 1005.6 |
| 20260505232502 | 61 | 234 | 0.9 | 5.2 | 0.02 | 0.02 | 0.02 | 90 | 1005.4 |
| 20260505232003 | 61 | 248 | 0.0 | 0.9 | 0.01 | 0.01 | 0.01 | 90 | 1005.2 |
| 20260505231503 | 61 | 253 | 0.0 | 0.0 | 0.01 | 0.01 | 0.01 | 90 | 1005.1 |
| 20260505230503 | 61 | 253 | 0.0 | 0.0 | 0.01 | 0.01 | 0.01 | 88 | 1005.0 |
| 20260505230003 | 62 | 253 | 0.0 | 0.0 | 0.01 | 0.01 | 0.01 | 88 | 1004.9 |
| 20260505225003 | 63 | 253 | 0.0 | 0.0 | 0.01 | 0.01 | 0.01 | 86 | 1004.8 |
| 20260505224003 | 64 | 253 | 1.7 | 7.8 | 0.01 | 0.01 | 0.01 | 81 | 1004.8 |
| 20260505223503 | 65 | 213 | 0.9 | 7.8 | 0.01 | 0.01 | 0.01 | 77 | 1004.9 |
| 20260505223003 | 68 | 212 | 0.9 | 8.7 | 0.00 | 0.00 | 0.00 | 69 | 1004.8 |
| 20260505222503 | 68 | 213 | 0.0 | 5.2 | 0.00 | 0.00 | 0.00 | 59 | 1004.5 |
| 20260505222003 | 68 | 214 | 0.0 | 12.2 | 0.00 | 0.00 | 0.00 | 60 | 1002.5 |
| 20260505221503 | 68 | 211 | 1.7 | 10.4 | 0.00 | 0.00 | 0.00 | 59 | 1002.0 |
| 20260505221003 | 69 | 167 | 2.6 | 10.4 | 0.00 | 0.00 | 0.00 | 59 | 1001.8 |
| 20260505220503 | 69 | 165 | 5.2 | 12.2 | 0.00 | 0.00 | 0.00 | 57 | 1001.8 |
| 20260505220003 | 70 | 160 | 2.6 | 10.4 | 0.00 | 0.00 | 0.00 | 57 | 1001.7 |
| 20260505215503 | 71 | 162 | 4.3 | 11.3 | 0.00 | 0.00 | 0.00 | 56 | 1001.6 |
| 20260505215003 | 72 | 221 | 1.7 | 11.3 | 0.00 | 0.00 | 0.00 | 54 | 1001.5 |
| 20260505214503 | 72 | 185 | 3.5 | 11.3 | 0.00 | 0.00 | 0.00 | 54 | 1001.3 |
| 20260505214003 | 73 | 226 | 2.6 | 11.3 | 0.00 | 0.00 | 0.00 | 55 | 1001.5 |
| 20260505213503 | 73 | 172 | 5.2 | 12.2 | 0.00 | 0.00 | 0.00 | 53 | 1001.3 |
| 20260505212503 | 73 | 199 | 1.7 | 10.4 | 0.00 | 0.00 | 0.00 | 54 | 1001.5 |
| 20260505212003 | 73 | 207 | 4.3 | 12.2 | 0.00 | 0.00 | 0.00 | 53 | 1001.4 |
| 20260505211003 | 73 | 190 | 6.1 | 13.9 | 0.00 | 0.00 | 0.00 | 53 | 1001.5 |
| 20260505210503 | 73 | 194 | 5.2 | 17.4 | 0.00 | 0.00 | 0.00 | 52 | 1001.4 |
| 20260505210003 | 73 | 192 | 4.3 | 19.1 | 0.00 | 0.00 | 0.00 | 52 | 1001.5 |
| 20260505205503 | 74 | 199 | 7.0 | 14.8 | 0.00 | 0.00 | 0.00 | 51 | 1001.3 |
| 20260505205003 | 74 | 198 | 6.1 | 17.4 | 0.00 | 0.00 | 0.00 | 50 | 1001.4 |
| 20260505204503 | 75 | 189 | 7.8 | 17.4 | 0.00 | 0.00 | 0.00 | 50 | 1001.2 |
| 20260505204003 | 75 | 182 | 5.2 | 17.4 | 0.00 | 0.00 | 0.00 | 50 | 1001.2 |
| 20260505203503 | 75 | 202 | 6.1 | 14.8 | 0.00 | 0.00 | 0.00 | 50 | 1001.3 |
| 20260505203003 | 76 | 209 | 5.2 | 13.9 | 0.00 | 0.00 | 0.00 | 50 | 1001.2 |
| 20260505202503 | 76 | 191 | 5.2 | 15.6 | 0.00 | 0.00 | 0.00 | 50 | 1001.2 |
| 20260505202004 | 76 | 177 | 6.1 | 20.9 | 0.00 | 0.00 | 0.00 | 50 | 1001.2 |
| 20260505201503 | 77 | 200 | 7.0 | 20.9 | 0.00 | 0.00 | 0.00 | 48 | 1001.2 |
| 20260505201003 | 78 | 191 | 6.1 | 17.4 | 0.00 | 0.00 | 0.00 | 47 | 1001.3 |
| 20260505200504 | 78 | 213 | 2.6 | 10.4 | 0.00 | 0.00 | 0.00 | 48 | 1001.5 |
| 20260505200003 | 78 | 208 | 5.2 | 12.2 | 0.00 | 0.00 | 0.00 | 47 | 1001.4 |
| 20260505195503 | 77 | 188 | 5.2 | 14.8 | 0.00 | 0.00 | 0.00 | 50 | 1001.5 |
| 20260505195003 | 77 | 224 | 7.0 | 20.0 | 0.00 | 0.00 | 0.00 | 47 | 1001.5 |
| 20260505194503 | 77 | 189 | 5.2 | 14.8 | 0.00 | 0.00 | 0.00 | 47 | 1001.5 |
| 20260505194004 | 78 | 192 | 6.1 | 18.2 | 0.00 | 0.00 | 0.00 | 47 | 1001.6 |
| 20260505193503 | 78 | 175 | 6.1 | 17.4 | 0.00 | 0.00 | 0.00 | 45 | 1001.7 |
| 20260505193003 | 79 | 197 | 5.2 | 17.4 | 0.00 | 0.00 | 0.00 | 44 | 1001.7 |
| 20260505192503 | 79 | 200 | 6.1 | 19.1 | 0.00 | 0.00 | 0.00 | 45 | 1001.7 |
| 20260505192003 | 79 | 181 | 5.2 | 15.6 | 0.00 | 0.00 | 0.00 | 45 | 1001.9 |
| 20260505191503 | 80 | 203 | 2.6 | 14.8 | 0.00 | 0.00 | 0.00 | 44 | 1001.9 |
| 20260505191003 | 80 | 168 | 5.2 | 17.4 | 0.00 | 0.00 | 0.00 | 45 | 1001.9 |
| 20260505190503 | 80 | 181 | 6.1 | 15.6 | 0.00 | 0.00 | 0.00 | 44 | 1001.9 |
| 20260505190004 | 80 | 197 | 7.0 | 17.4 | 0.00 | 0.00 | 0.00 | 46 | 1002.0 |
| 20260505185503 | 80 | 175 | 1.7 | 8.7 | 0.00 | 0.00 | 0.00 | 45 | 1002.0 |
| 20260505184503 | 80 | 156 | 5.2 | 17.4 | 0.00 | 0.00 | 0.00 | 45 | 1002.1 |
| 20260505183503 | 80 | 157 | 1.7 | 11.3 | 0.00 | 0.00 | 0.00 | 44 | 1002.1 |
| 20260505183004 | 80 | 170 | 2.6 | 11.3 | 0.00 | 0.00 | 0.00 | 43 | 1002.2 |
| 20260505182503 | 80 | 169 | 2.6 | 10.4 | 0.00 | 0.00 | 0.00 | 45 | 1002.2 |
| 20260505182003 | 80 | 141 | 1.7 | 12.2 | 0.00 | 0.00 | 0.00 | 45 | 1002.1 |
| 20260505181503 | 80 | 189 | 0.9 | 10.4 | 0.00 | 0.00 | 0.00 | 45 | 1002.3 |
| 20260505181003 | 80 | 182 | 1.7 | 8.7 | 0.00 | 0.00 | 0.00 | 44 | 1002.3 |
| 20260505180504 | 79 | 193 | 2.6 | 13.0 | 0.00 | 0.00 | 0.00 | 46 | 1002.5 |
| 20260505180003 | 79 | 179 | 5.2 | 14.8 | 0.00 | 0.00 | 0.00 | 47 | 1002.6 |
| 20260505175503 | 79 | 186 | 2.6 | 13.9 | 0.00 | 0.00 | 0.00 | 46 | 1002.7 |
| 20260505175003 | 78 | 176 | 6.1 | 13.9 | 0.00 | 0.00 | 0.00 | 47 | 1002.8 |
| 20260505174503 | 78 | 177 | 7.8 | 17.4 | 0.00 | 0.00 | 0.00 | 46 | 1002.9 |
| 20260505174003 | 78 | 190 | 3.5 | 13.0 | 0.00 | 0.00 | 0.00 | 45 | 1002.9 |
| 20260505173003 | 78 | 236 | 5.2 | 13.0 | 0.00 | 0.00 | 0.00 | 45 | 1003.1 |
| 20260505172003 | 79 | 184 | 4.3 | 15.6 | 0.00 | 0.00 | 0.00 | 45 | 1003.3 |
| 20260505171504 | 78 | 187 | 3.5 | 11.3 | 0.00 | 0.00 | 0.00 | 45 | 1003.3 |
| 20260505170504 | 78 | 192 | 4.3 | 11.3 | 0.00 | 0.00 | 0.00 | 46 | 1003.4 |
| 20260505170003 | 78 | 178 | 3.5 | 11.3 | 0.00 | 0.00 | 0.00 | 45 | 1003.4 |
| 20260505165504 | 78 | 195 | 1.7 | 8.7 | 0.00 | 0.00 | 0.00 | 44 | 1003.4 |
| 20260505165003 | 78 | 211 | 3.5 | 13.0 | 0.00 | 0.00 | 0.00 | 44 | 1003.6 |
| 20260505164503 | 78 | 195 | 4.3 | 17.4 | 0.00 | 0.00 | 0.00 | 46 | 1003.4 |
| 20260505164003 | 77 | 203 | 6.1 | 14.8 | 0.00 | 0.00 | 0.00 | 47 | 1003.7 |
| 20260505163004 | 77 | 201 | 4.3 | 13.0 | 0.00 | 0.01 | 0.00 | 47 | 1004.0 |
| 20260505162503 | 77 | 175 | 2.6 | 11.3 | 0.00 | 0.02 | 0.00 | 46 | 1003.9 |
| 20260505162003 | 76 | 201 | 2.6 | 15.6 | 0.00 | 0.02 | 0.00 | 47 | 1004.1 |
| 20260505161503 | 76 | 203 | 7.0 | 15.6 | 0.00 | 0.02 | 0.00 | 45 | 1004.2 |
| 20260505161004 | 75 | 211 | 6.1 | 13.0 | 0.00 | 0.02 | 0.00 | 46 | 1004.4 |
| 20260505160503 | 75 | 196 | 1.7 | 11.3 | 0.00 | 0.02 | 0.00 | 48 | 1004.4 |
| 20260505153003 | 72 | 221 | 2.6 | 14.8 | 0.00 | 0.02 | 0.00 | 48 | 1005.3 |
| 20260505152004 | 73 | 217 | 2.6 | 10.4 | 0.00 | 0.02 | 0.00 | 47 | 1005.3 |
| 20260505151503 | 74 | 221 | 3.5 | 8.7 | 0.00 | 0.02 | 0.00 | 46 | 1005.3 |
| 20260505151003 | 73 | 189 | 3.5 | 8.7 | 0.00 | 0.02 | 0.00 | 49 | 1005.4 |
| 20260505150504 | 72 | 214 | 2.6 | 10.4 | 0.00 | 0.02 | 0.00 | 50 | 1005.4 |
| 20260505140503 | 67 | 209 | 1.7 | 6.1 | 0.00 | 0.02 | 0.00 | 57 | 1005.5 |
| 20260505125004 | 59 | 212 | 0.0 | 0.9 | 0.00 | 0.02 | 0.00 | 69 | 1006.0 |
| 20260505124503 | 59 | 232 | 0.9 | 6.1 | 0.00 | 0.02 | 0.00 | 68 | 1006.0 |
| 20260505124004 | 58 | 188 | 0.0 | 5.2 | 0.00 | 0.02 | 0.00 | 71 | 1006.1 |
| 20260505123503 | 58 | 225 | 0.9 | 7.0 | 0.00 | 0.02 | 0.00 | 70 | 1006.2 |
| 20260505123004 | 57 | 205 | 0.9 | 6.1 | 0.00 | 0.02 | 0.00 | 72 | 1006.2 |
| 20260505122504 | 57 | 203 | 0.9 | 4.3 | 0.00 | 0.02 | 0.00 | 69 | 1006.1 |
| 20260505122003 | 56 | 223 | 0.0 | 2.6 | 0.00 | 0.02 | 0.00 | 71 | 1006.2 |
| 20260505121503 | 56 | 186 | 0.9 | 6.1 | 0.00 | 0.02 | 0.00 | 72 | 1006.3 |
| 20260505121003 | 55 | 156 | 0.0 | 6.1 | 0.00 | 0.02 | 0.00 | 73 | 1006.3 |
| 20260505120504 | 55 | 211 | 0.9 | 2.6 | 0.00 | 0.02 | 0.00 | 73 | 1006.5 |
| 20260505120004 | 55 | 211 | 0.0 | 2.6 | 0.00 | 0.02 | 0.00 | 74 | 1006.5 |
| 20260505115505 | 55 | 211 | 0.0 | 0.0 | 0.00 | 0.02 | 0.00 | 74 | 1006.5 |
| 20260505115003 | 54 | 211 | 0.9 | 2.6 | 0.00 | 0.02 | 0.00 | 72 | 1006.5 |
| 20260505114503 | 54 | 211 | 0.0 | 1.7 | 0.00 | 0.02 | 0.00 | 74 | 1006.5 |
| 20260505114004 | 54 | 223 | 0.0 | 2.6 | 0.00 | 0.02 | 0.00 | 74 | 1006.4 |
| 20260505113503 | 54 | 208 | 0.0 | 6.1 | 0.00 | 0.02 | 0.00 | 75 | 1006.5 |
| 20260505112503 | 53 | 209 | 0.0 | 2.6 | 0.00 | 0.02 | 0.00 | 76 | 1006.4 |
| 20260505112003 | 53 | 269 | 0.0 | 0.0 | 0.00 | 0.02 | 0.00 | 76 | 1006.4 |
| 20260505111504 | 53 | 269 | 0.0 | 0.0 | 0.00 | 0.02 | 0.00 | 76 | 1006.5 |
| 20260505111004 | 52 | 269 | 0.0 | 0.0 | 0.00 | 0.02 | 0.00 | 79 | 1006.5 |
| 20260505110503 | 52 | 269 | 0.0 | 0.0 | 0.00 | 0.02 | 0.00 | 78 | 1006.4 |
| 20260505102004 | 47 | 269 | 0.0 | 0.0 | 0.00 | 0.02 | 0.00 | 90 | 1006.2 |
| 20260505101504 | 46 | 269 | 0.0 | 0.0 | 0.00 | 0.02 | 0.00 | 91 | 1006.3 |
| 20260505101003 | 46 | 269 | 0.0 | 0.0 | 0.00 | 0.02 | 0.00 | 91 | 1006.3 |
| 20260505100504 | 45 | 269 | 0.0 | 0.0 | 0.00 | 0.02 | 0.00 | 91 | 1006.3 |
| 20260505095504 | 45 | 269 | 0.0 | 0.0 | 0.00 | 0.02 | 0.00 | 91 | 1006.2 |
| 20260505095003 | 45 | 269 | 0.0 | 0.0 | 0.00 | 0.02 | 0.00 | 90 | 1006.2 |
| 20260505094503 | 45 | 269 | 0.0 | 0.0 | 0.00 | 0.02 | 0.00 | 90 | 1006.2 |
| 20260505094004 | 45 | 269 | 0.0 | 0.0 | 0.00 | 0.02 | 0.00 | 90 | 1006.2 |
| 20260505093504 | 45 | 269 | 0.0 | 0.0 | 0.00 | 0.02 | 0.00 | 90 | 1006.1 |
| 20260505093004 | 45 | 269 | 0.0 | 0.0 | 0.00 | 0.02 | 0.00 | 89 | 1006.1 |
| 20260505092504 | 45 | 269 | 0.0 | 0.0 | 0.00 | 0.02 | 0.00 | 89 | 1006.1 |
| 20260505092004 | 45 | 269 | 0.0 | 0.9 | 0.00 | 0.02 | 0.00 | 89 | 1006.1 |
| 20260505091504 | 45 | 269 | 0.0 | 0.0 | 0.00 | 0.02 | 0.00 | 89 | 1006.1 |
| 20260505091004 | 45 | 269 | 0.0 | 0.0 | 0.00 | 0.02 | 0.00 | 89 | 1006.1 |
| 20260505090504 | 45 | 269 | 0.0 | 0.9 | 0.00 | 0.02 | 0.00 | 88 | 1006.2 |
| 20260505090004 | 45 | 269 | 0.0 | 0.0 | 0.00 | 0.02 | 0.00 | 89 | 1006.2 |
| 20260505085504 | 45 | 269 | 0.0 | 0.0 | 0.00 | 0.02 | 0.00 | 87 | 1006.3 |
| 20260505084503 | 45 | 269 | 0.0 | 0.0 | 0.00 | 0.02 | 0.00 | 87 | 1006.3 |
| 20260505084004 | 45 | 269 | 0.0 | 0.0 | 0.00 | 0.02 | 0.00 | 87 | 1006.3 |
| 20260505083504 | 46 | 269 | 0.0 | 0.0 | 0.00 | 0.02 | 0.00 | 86 | 1006.4 |
| 20260505083004 | 46 | 269 | 0.0 | 0.0 | 0.00 | 0.02 | 0.00 | 85 | 1006.4 |
| 20260505082503 | 46 | 269 | 0.0 | 0.0 | 0.00 | 0.02 | 0.00 | 85 | 1006.4 |
| 20260505082004 | 46 | 269 | 0.0 | 0.0 | 0.00 | 0.02 | 0.00 | 84 | 1006.5 |
| 20260505081504 | 47 | 269 | 0.0 | 0.0 | 0.00 | 0.02 | 0.00 | 83 | 1006.5 |
| 20260505081004 | 47 | 269 | 0.0 | 0.0 | 0.00 | 0.02 | 0.00 | 83 | 1006.6 |
| 20260505080504 | 47 | 269 | 0.0 | 0.0 | 0.00 | 0.02 | 0.00 | 82 | 1006.6 |
| 20260505075504 | 47 | 268 | 0.0 | 0.0 | 0.00 | 0.02 | 0.00 | 80 | 1006.6 |
| 20260505075004 | 48 | 268 | 0.9 | 4.3 | 0.00 | 0.02 | 0.00 | 80 | 1006.6 |
| 20260505074504 | 48 | 268 | 0.0 | 0.9 | 0.00 | 0.02 | 0.00 | 78 | 1006.6 |
| 20260505074004 | 49 | 267 | 0.0 | 0.0 | 0.00 | 0.02 | 0.00 | 77 | 1006.6 |
| 20260505073504 | 50 | 267 | 0.0 | 4.3 | 0.00 | 0.02 | 0.00 | 76 | 1006.6 |
| 20260505073004 | 50 | 232 | 0.0 | 0.0 | 0.00 | 0.02 | 0.00 | 74 | 1006.6 |
| 20260505072504 | 51 | 232 | 0.0 | 0.9 | 0.00 | 0.02 | 0.00 | 73 | 1006.5 |
| 20260505072004 | 52 | 232 | 0.0 | 1.7 | 0.00 | 0.02 | 0.00 | 70 | 1006.4 |
| 20260505071504 | 53 | 232 | 0.0 | 6.1 | 0.00 | 0.02 | 0.00 | 69 | 1006.5 |
| 20260505070004 | 56 | 212 | 0.9 | 2.6 | 0.00 | 0.02 | 0.00 | 60 | 1006.4 |
| 20260505065504 | 56 | 242 | 0.9 | 6.1 | 0.00 | 0.02 | 0.00 | 61 | 1006.5 |
| 20260505065004 | 57 | 219 | 0.9 | 12.2 | 0.00 | 0.02 | 0.00 | 61 | 1006.4 |
| 20260505064504 | 56 | 244 | 1.7 | 10.4 | 0.00 | 0.02 | 0.00 | 62 | 1006.3 |
| 20260505064004 | 55 | 223 | 4.3 | 12.2 | 0.00 | 0.02 | 0.00 | 64 | 1006.3 |
| 20260505063504 | 55 | 225 | 1.7 | 11.3 | 0.00 | 0.02 | 0.00 | 64 | 1006.3 |
| 20260505063004 | 55 | 228 | 5.2 | 10.4 | 0.00 | 0.02 | 0.00 | 65 | 1006.3 |
| 20260505062504 | 55 | 227 | 5.2 | 12.2 | 0.00 | 0.02 | 0.00 | 67 | 1006.2 |
| 20260505062004 | 55 | 228 | 6.1 | 17.4 | 0.00 | 0.02 | 0.00 | 66 | 1006.2 |
| 20260505061504 | 54 | 226 | 2.6 | 10.4 | 0.00 | 0.02 | 0.00 | 68 | 1006.4 |
| 20260505061004 | 53 | 227 | 5.2 | 12.2 | 0.00 | 0.02 | 0.00 | 71 | 1006.4 |
| 20260505060504 | 51 | 222 | 5.2 | 11.3 | 0.00 | 0.02 | 0.00 | 76 | 1006.5 |
| 20260505060004 | 49 | 217 | 1.7 | 13.0 | 0.00 | 0.02 | 0.00 | 82 | 1006.5 |